TimePDT,TemperatureF,Dew PointF,Humidity,Sea Level PressureIn,VisibilityMPH,Wind Direction,Wind SpeedMPH,Gust SpeedMPH,PrecipitationIn,Events,Conditions,WindDirDegrees,DateUTC
12:56 AM,48.9,46.0,90,29.94,10.0,Calm,Calm,-,0.00,,Overcast,0,2013-05-28 07:56:00
1:38 AM,48.2,46.4,93,29.92,10.0,Calm,Calm,-,N/A,,Overcast,0,2013-05-28 08:38:00
1:53 AM,48.2,46.4,93,29.91,10.0,Calm,Calm,-,N/A,,Overcast,0,2013-05-28 08:53:00
1:56 AM,48.0,46.0,93,29.94,10.0,Calm,Calm,-,N/A,,Overcast,0,2013-05-28 08:56:00
2:32 AM,48.2,46.4,93,29.92,10.0,Calm,Calm,-,0.00,Rain,Light Rain,0,2013-05-28 09:32:00
2:45 AM,48.2,44.6,87,29.92,10.0,Calm,Calm,-,0.00,,Overcast,0,2013-05-28 09:45:00
2:56 AM,48.0,45.0,89,29.96,10.0,Calm,Calm,-,0.00,,Overcast,0,2013-05-28 09:56:00
3:47 AM,46.4,44.6,93,29.92,9.0,Calm,Calm,-,N/A,,Mostly Cloudy,0,2013-05-28 10:47:00
3:56 AM,46.0,44.1,93,29.96,9.0,Calm,Calm,-,N/A,,Scattered Clouds,0,2013-05-28 10:56:00
4:06 AM,46.4,44.6,93,29.92,9.0,Calm,Calm,-,N/A,,Mostly Cloudy,0,2013-05-28 11:06:00
4:56 AM,44.1,42.1,93,29.97,9.0,Calm,Calm,-,N/A,,Mostly Cloudy,0,2013-05-28 11:56:00
5:56 AM,45.0,43.0,93,29.98,10.0,Calm,Calm,-,N/A,,Overcast,0,2013-05-28 12:56:00
6:12 AM,44.6,42.8,93,29.94,10.0,Calm,Calm,-,N/A,,Overcast,0,2013-05-28 13:12:00
6:45 AM,44.6,42.8,93,29.95,8.0,Calm,Calm,-,N/A,,Overcast,0,2013-05-28 13:45:00
6:56 AM,45.0,42.1,90,29.99,10.0,Calm,Calm,-,N/A,,Overcast,0,2013-05-28 13:56:00
7:40 AM,46.4,44.6,93,29.96,1.8,Calm,Calm,-,N/A,,Overcast,0,2013-05-28 14:40:00
7:56 AM,46.9,44.1,90,30.00,4.0,Calm,Calm,-,N/A,,Overcast,0,2013-05-28 14:56:00
8:26 AM,48.2,44.6,87,29.96,10.0,Calm,Calm,-,N/A,,Mostly Cloudy,0,2013-05-28 15:26:00
8:45 AM,51.8,46.4,82,29.96,10.0,Calm,Calm,-,N/A,,Scattered Clouds,0,2013-05-28 15:45:00
8:53 AM,51.8,46.4,82,29.97,10.0,Calm,Calm,-,N/A,,Mostly Cloudy,0,2013-05-28 15:53:00
8:56 AM,52.0,46.9,83,30.00,10.0,Calm,Calm,-,N/A,,Mostly Cloudy,0,2013-05-28 15:56:00
9:33 AM,53.6,44.6,72,29.97,10.0,Calm,Calm,-,N/A,,Scattered Clouds,0,2013-05-28 16:33:00
9:56 AM,55.9,46.0,69,29.99,10.0,Calm,Calm,-,N/A,,Clear,0,2013-05-28 16:56:00
10:56 AM,60.1,44.1,55,29.99,10.0,Variable,3.5,-,N/A,,Clear,0,2013-05-28 17:56:00
11:56 AM,63.0,45.0,52,29.99,10.0,Calm,Calm,-,N/A,,Clear,0,2013-05-28 18:56:00
12:56 PM,66.0,44.1,45,29.97,10.0,Calm,Calm,-,N/A,,Clear,0,2013-05-28 19:56:00
1:56 PM,66.0,45.0,47,29.97,10.0,Calm,Calm,-,N/A,,Partly Cloudy,0,2013-05-28 20:56:00
2:56 PM,68.0,44.1,42,29.94,10.0,Variable,4.6,-,N/A,,Clear,0,2013-05-28 21:56:00
3:56 PM,69.1,46.0,44,29.94,10.0,Variable,4.6,-,N/A,,Clear,0,2013-05-28 22:56:00
4:56 PM,66.0,46.0,48,29.94,10.0,Variable,3.5,-,N/A,,Clear,0,2013-05-28 23:56:00
5:56 PM,64.9,46.0,50,29.93,10.0,Variable,4.6,-,N/A,,Clear,0,2013-05-29 00:56:00
6:56 PM,61.0,46.0,58,29.93,10.0,SE,6.9,-,N/A,,Clear,140,2013-05-29 01:56:00
7:56 PM,59.0,45.0,60,29.93,10.0,Calm,Calm,-,N/A,,Scattered Clouds,0,2013-05-29 02:56:00
8:56 PM,57.9,44.1,60,29.92,10.0,Calm,Calm,-,N/A,,Overcast,0,2013-05-29 03:56:00
9:56 PM,55.9,44.1,64,29.92,10.0,Calm,Calm,-,N/A,,Partly Cloudy,0,2013-05-29 04:56:00
10:56 PM,57.0,44.1,62,29.89,10.0,Variable,4.6,-,N/A,,Scattered Clouds,0,2013-05-29 05:56:00
11:56 PM,55.9,45.0,67,29.86,10.0,Variable,3.5,-,0.00,,Overcast,0,2013-05-29 06:56:00